Theta_e
290 291 290 290 290 290 289 289 290 290 290 290 289 289 288 288 288 287 287 287 288 288 288 289 289 289 289 289 290 291 291 291 293 293 294 294 294 295
290 290 290 290 289 289 289 288 288 288 289 288 288 288 288 287 287 287 287 288 287 287 288 288 288 288 289 289 289 290 291 291 292 292 293 294 294 295
290 290 289 289 288 288 287 287 287 287 288 288 288 287 287 287 287 287 288 287 287 286 286 287 288 288 289 289 289 289 290 291 291 292 293 293 294 294
290 289 289 288 288 287 287 287 287 287 287 288 287 287 287 287 287 288 288 286 286 286 286 287 288 288 288 288 289 289 289 290 290 290 291 292 292 293
289 289 288 288 287 287 287 287 287 287 287 287 287 287 287 287 288 287 286 286 286 286 286 286 287 287 288 288 288 289 289 289 289 289 290 290 291 291
289 288 288 287 286 286 286 286 286 286 286 286 286 287 287 287 286 286 286 285 285 285 286 285 286 286 287 287 287 288 288 288 288 289 289 289 290 290
288 288 287 286 286 286 286 286 286 286 286 286 287 288 286 286 286 285 285 285 285 286 285 285 286 285 285 286 286 286 287 288 288 289 289 290 290 290
288 287 286 286 286 286 286 286 286 286 287 287 287 286 286 285 285 285 284 285 285 284 285 284 284 285 285 285 286 287 287 288 288 289 289 290 290 291
287 286 286 286 286 286 285 285 285 286 286 286 286 285 285 284 284 284 285 285 284 284 284 285 285 285 285 285 285 287 287 288 288 289 289 290 290 290
286 286 286 286 286 286 286 285 286 286 285 285 285 284 284 285 285 285 284 284 284 284 284 284 284 283 284 285 284 285 286 288 288 289 289 290 290 290
286 286 286 286 285 286 286 286 285 284 284 284 284 284 285 285 284 284 284 284 284 283 283 283 283 284 283 283 284 285 286 287 287 288 289 290 291 291
285 285 285 285 286 285 285 285 284 283 283 283 284 283 283 283 283 283 284 284 283 282 282 283 283 282 282 283 284 283 284 285 287 288 290 290 290 291
285 285 285 285 285 285 284 284 283 283 283 283 282 282 282 282 282 283 282 282 282 281 281 281 281 281 281 281 282 283 283 285 286 287 289 290 290 291
285 284 284 284 285 284 283 282 283 283 282 282 282 281 281 282 282 281 281 280 280 281 281 281 281 281 281 282 282 283 284 285 287 288 289 290 290 290
284 284 284 284 283 282 281 282 282 281 281 281 282 282 281 281 280 281 281 281 281 281 281 281 282 282 283 283 283 284 286 286 287 288 289 290 289 289
284 283 283 282 281 281 281 281 281 281 281 281 281 281 280 280 280 280 281 281 281 282 282 282 283 283 284 285 285 286 287 287 288 289 289 289 290 290
283 282 281 281 280 280 280 280 280 280 280 280 280 280 279 280 280 280 281 281 282 282 282 283 283 284 285 286 287 287 287 289 290 289 289 289 290 290
281 280 280 280 280 280 280 279 279 280 280 280 279 279 279 280 280 281 281 281 282 282 283 283 284 285 285 287 288 289 288 289 289 289 289 290 290 290
280 279 279 279 279 279 279 279 279 279 279 279 279 279 279 280 280 280 280 281 282 282 283 284 284 285 286 286 287 287 288 287 288 289 289 289 290 290
279 279 279 279 278 278 278 278 278 279 279 279 279 279 279 279 280 280 281 281 282 283 284 284 285 285 286 287 287 287 288 289 289 289 289 289 290 290
278 278 278 278 278 278 278 278 278 278 279 279 278 279 279 279 280 280 281 282 283 284 284 285 285 286 286 286 287 288 288 288 289 289 289 290 290 290
278 278 277 277 277 277 278 278 278 278 278 278 278 278 279 279 280 280 281 282 283 284 285 286 285 285 287 287 288 288 288 288 289 289 289 290 290 290
277 277 277 277 277 277 277 277 277 277 277 278 278 278 279 280 280 281 282 283 284 285 286 285 285 286 286 287 288 288 288 288 288 289 289 290 290 290
Wind_Speed
4 6 8 9 11 12 14 15 15 10 11 16 15 21 24 26 26 30 33 33 33 35 37 36 37 38 37 37 37 38 37 37 37 37 37 38 39 39
6 7 9 11 13 14 15 16 17 19 12 20 21 24 25 28 31 31 33 32 33 36 35 36 36 36 36 37 37 38 39 40 39 39 39 39 40 40
7 9 11 12 14 15 16 17 18 19 16 24 24 24 30 29 30 33 29 34 33 37 37 34 35 36 37 37 37 38 39 40 40 39 38 39 39 39
9 11 13 13 15 16 17 18 20 22 24 26 26 28 26 28 31 31 28 32 35 30 32 36 37 37 38 38 37 37 38 38 40 40 39 39 40 41
11 12 14 15 17 17 18 20 21 22 24 27 30 28 29 29 28 29 33 27 27 33 32 36 37 37 37 37 37 38 39 41 40 40 40 40 40 41
13 14 15 16 17 18 20 21 22 23 25 26 29 30 28 25 30 25 24 28 31 31 33 36 34 35 34 38 39 38 37 36 36 37 37 38 39 39
14 15 16 17 18 20 20 21 24 23 25 26 27 23 28 26 24 27 27 29 37 26 32 35 28 38 35 35 36 35 34 35 36 37 38 39 39 40
16 16 18 18 18 19 21 23 25 27 26 25 25 25 27 27 27 27 31 27 12 29 20 40 32 36 34 34 35 37 37 37 36 37 39 40 40 40
16 17 18 18 19 20 22 24 27 28 30 32 28 26 27 29 32 33 30 28 29 33 30 34 33 36 34 36 34 38 40 37 34 33 34 34 35 37
17 18 19 20 20 23 23 26 26 28 27 27 27 26 29 33 31 28 32 32 35 31 26 17 34 37 33 36 41 36 32 30 30 34 36 35 35 36
17 18 20 21 22 22 27 27 27 29 28 26 27 32 33 32 29 27 25 24 17 27 28 27 25 30 37 40 29 24 28 35 34 32 33 35 35 36
18 21 21 21 22 26 28 28 28 28 27 30 29 29 25 25 26 25 24 21 22 18 25 18 25 22 6 22 26 34 28 31 32 33 34 34 31 31
20 20 20 22 26 29 29 28 26 28 28 27 25 24 26 26 26 26 26 25 26 26 37 29 23 27 17 22 30 30 35 31 32 38 33 32 33 34
21 22 23 28 30 28 26 23 24 25 22 20 22 25 25 27 28 30 32 32 32 34 38 35 27 27 26 20 16 32 35 37 31 33 33 31 32 33
22 25 29 30 27 23 21 23 21 19 19 21 22 24 25 29 33 30 31 29 32 34 33 31 30 31 29 26 23 33 31 36 35 27 34 32 32 34
24 27 27 24 20 20 20 19 19 20 21 21 24 27 28 28 28 27 27 28 27 32 30 26 26 28 29 30 30 30 34 17 33 30 31 35 31 30
28 24 20 18 18 18 19 19 20 21 23 23 24 25 27 25 27 27 26 26 23 25 30 32 28 28 30 32 28 29 29 28 28 28 30 30 28 25
20 17 16 17 18 19 20 23 23 24 23 24 26 25 25 25 26 27 25 23 22 23 25 27 28 27 28 23 22 23 26 25 30 29 27 23 23 27
14 15 16 17 19 20 21 23 26 26 27 25 24 26 26 26 27 25 25 24 23 23 25 26 23 19 12 13 29 19 21 31 28 26 24 22 21 28
14 16 17 19 20 21 23 24 27 27 27 26 26 27 26 24 25 25 24 23 23 24 23 24 22 21 12 14 15 36 30 27 25 24 25 26 24 22
16 18 19 20 22 23 25 26 26 28 28 28 27 26 27 24 25 25 25 28 27 22 17 21 26 29 30 27 15 19 29 29 26 27 27 21 11 14
18 20 21 22 24 25 27 27 28 28 28 27 27 28 27 25 25 26 25 24 23 23 24 24 28 27 23 18 11 19 26 30 27 27 23 18 12 5
20 21 24 25 26 26 27 27 27 29 29 28 28 29 28 27 28 26 26 25 25 21 19 21 25 24 22 20 22 19 24 23 23 25 24 25 21 20
Wind_Direction
286 279 281 288 289 289 289 289 292 299 298 304 305 314 310 309 305 305 300 297 299 299 299 299 297 297 296 295 293 292 291 288 285 283 280 278 275 273
283 288 292 293 293 292 289 288 287 289 290 299 301 307 308 309 303 300 299 299 297 299 297 297 297 296 294 293 292 290 289 287 286 283 281 278 276 274
288 291 291 291 290 293 293 292 290 290 289 296 299 306 304 301 300 299 300 297 295 301 298 298 297 296 294 293 291 290 288 287 285 283 281 280 278 276
294 291 291 295 296 296 295 297 297 294 293 297 302 302 298 303 299 301 297 300 297 296 301 300 298 297 295 293 292 290 289 287 286 284 282 280 277 275
290 292 295 298 299 301 302 301 298 299 300 301 302 305 303 303 301 304 300 296 302 302 302 300 298 297 294 294 291 290 289 287 286 283 281 278 276 275
292 291 293 296 299 304 306 303 304 305 302 303 299 299 299 306 303 303 309 307 302 303 301 298 298 296 294 293 292 291 289 287 285 283 280 278 276 274
296 298 299 299 297 296 298 300 302 304 299 294 293 299 306 309 310 313 305 307 300 299 303 296 299 296 293 295 293 293 293 292 289 286 283 280 278 276
303 304 301 301 300 301 300 301 299 298 297 296 298 297 302 306 311 309 305 301 306 311 305 297 299 295 296 295 295 295 294 294 290 286 283 279 276 274
300 302 304 303 303 304 303 302 304 300 298 297 298 300 304 306 305 298 299 302 297 298 300 293 301 296 298 296 297 297 297 293 292 289 286 283 279 276
302 302 303 304 305 306 307 306 302 300 300 301 298 300 299 297 293 296 299 297 295 296 298 289 300 294 299 298 296 295 295 295 295 294 293 289 284 280
307 307 307 306 305 308 311 309 308 307 306 303 302 299 300 301 301 302 297 298 294 298 301 294 295 303 303 295 293 297 299 299 299 297 295 294 290 285
315 310 309 308 310 313 311 314 308 307 309 308 306 304 304 303 301 299 297 295 297 299 301 307 303 313 306 294 301 302 301 302 302 299 298 299 296 290
308 309 312 310 312 311 312 309 303 305 308 306 304 307 307 304 301 300 298 293 293 288 290 300 297 297 284 298 302 302 303 301 302 300 298 296 294 291
309 309 308 311 312 311 310 307 308 308 305 304 307 303 303 304 304 303 300 296 290 282 291 291 280 285 286 288 291 300 303 303 301 297 297 299 300 298
312 310 311 312 312 310 310 312 314 310 310 306 300 300 301 301 301 300 302 299 299 294 291 290 279 280 277 278 283 291 299 303 299 293 304 307 307 303
316 314 312 310 311 313 317 318 317 313 309 307 302 299 301 303 302 303 301 301 299 302 305 302 297 288 282 280 282 287 293 289 296 302 305 309 311 306
316 314 311 316 320 320 319 317 314 310 307 303 301 301 300 302 302 304 301 301 296 300 306 313 312 301 289 283 283 282 288 294 303 302 311 308 314 309
316 310 317 319 318 319 317 314 310 309 307 305 302 300 300 302 302 305 304 299 296 299 302 307 310 313 310 304 283 285 297 298 307 307 310 304 311 320
313 316 313 314 314 313 311 308 306 308 307 303 301 300 299 299 303 300 302 301 303 304 303 305 311 310 310 309 313 312 311 304 305 309 313 305 305 312
318 315 314 313 312 309 306 305 305 306 306 304 303 301 299 297 299 300 300 300 300 301 305 313 313 314 302 305 305 302 312 305 311 312 314 310 301 305
318 315 313 310 307 304 303 304 303 302 304 303 301 298 298 298 296 297 298 303 307 306 302 304 312 316 307 307 298 306 312 317 317 314 313 310 305 316
316 314 311 307 305 303 304 303 303 303 303 302 301 299 299 298 295 297 298 300 302 297 293 301 318 315 314 310 305 313 316 322 327 324 321 312 313 313
314 311 308 305 305 304 304 304 303 302 301 301 300 300 300 299 299 297 296 297 296 302 319 315 318 319 313 311 317 316 320 326 328 326 326 338 332 335